Change the Weather History Date:

Wednesday, January 16, 2013

  Actual Average (KPKB) Record (KPKB)
Temperature  
Mean Temperature 32 °F 31 °F  
Max Temperature 33 °F 40 °F 66 °F (1949)
Min Temperature 31 °F 23 °F -11 °F (1972)
Degree Days  
Heating Degree Days 33 34  
Month to date heating degree days 537  
Cooling Degree Days 0 0  
Month to date cooling degree days 0  
Year to date cooling degree days 0  
Moisture  
Dew Point 31 °F    
Average Humidity 95    
Maximum Humidity 99    
Minimum Humidity 93    
Precipitation  
Precipitation 0.00 in 0.10 in 0.20 in (2013)
Month to date precipitation 1.51  
Year to date precipitation 1.51  
Sea Level Pressure  
Sea Level Pressure 30.01 in    
Wind  
Wind Speed 4 mph (WSW)    
Max Wind Speed 9 mph    
Max Gust Speed -    
Visibility 6 miles    
Events Rain    
T = Trace of Precipitation, MM = Missing Value Source: NWS Daily Summary

Daily Weather History Graph

Daily Weather History Graph

Search for Another Location

Airport or City:

Trip Planner

Search our weather history database for the weather conditions in past years. The results will help you decide how hot, cold, wet, or windy it might be!

Date:

Astronomy

Jan. 16, 2013 Rise Set
Actual Time 7:46 AM EST 5:31 PM EST
Civil Twilight 7:17 AM EST 6:00 PM EST
Nautical Twilight 6:44 AM EST 6:33 PM EST
Astronomical Twilight 6:12 AM EST 7:05 PM EST
Moon 10:24 AM EST (1/16) 11:19 PM EST (1/16)
Length of Visible Light 10h 43m
Length of Day
9h 45m
Waxing Crescent, 28% of the Moon is Illuminated
Jan 16
Waxing Crescent
Jan 18
First Quarter
Jan 26
Full
Feb 3
Last Quarter
Feb 10
New

Hourly Weather History & Observations

Time (EST) Temp. Windchill Dew Point Humidity Pressure Visibility Wind Dir Wind Speed Gust Speed Precip Events Conditions
12:15 AM 31.6 °F 28.3 °F 29.8 °F 93% 30.06 in 4.0 mi NNE 3.5 mph - N/A Rain Light Freezing Rain
12:35 AM 31.6 °F 26.0 °F 29.8 °F 93% 30.04 in 4.0 mi NNE 5.8 mph - N/A Rain Light Freezing Rain
1:15 AM 31.8 °F 27.3 °F 30.2 °F 94% 30.02 in 5.0 mi NNE 4.6 mph - N/A Rain Light Freezing Rain
1:35 AM 32.0 °F 28.7 °F 30.2 °F 93% 30.03 in 5.0 mi North 3.5 mph - N/A Rain Light Rain
1:55 AM 32.0 °F 27.5 °F 30.2 °F 93% 30.02 in 5.0 mi North 4.6 mph - N/A Rain Light Rain
2:15 AM 32.0 °F 28.7 °F 30.2 °F 93% 30.02 in 4.0 mi North 3.5 mph - N/A   Overcast
2:35 AM 32.0 °F - 30.2 °F 93% 30.04 in 2.5 mi Calm Calm - N/A Rain Light Rain
2:55 AM 32.0 °F 28.7 °F 30.2 °F 93% 30.02 in 3.0 mi NNE 3.5 mph - N/A Rain Light Rain
3:35 AM 32.0 °F 28.7 °F 30.6 °F 94% 29.99 in 4.0 mi NNE 3.5 mph - N/A Rain Light Rain
3:55 AM 32.0 °F - 30.4 °F 94% 29.99 in 5.0 mi Calm Calm - N/A   Light Drizzle
4:15 AM 32.0 °F 27.5 °F 30.6 °F 94% 29.99 in 5.0 mi NNW 4.6 mph - N/A Rain Rain
4:35 AM 32.0 °F - 30.6 °F 94% 29.99 in 5.0 mi Calm Calm - N/A Rain Light Rain
4:55 AM 32.0 °F 28.7 °F 30.7 °F 95% 29.94 in 4.0 mi East 3.5 mph - N/A Rain Light Rain
5:15 AM 32.0 °F - 30.9 °F 96% 29.95 in 7.0 mi Calm Calm - N/A   Light Drizzle
5:35 AM 32.0 °F 27.5 °F 30.7 °F 95% 29.94 in 5.0 mi NW 4.6 mph - N/A Rain Rain
5:55 AM 32.0 °F 28.7 °F 30.9 °F 96% 29.94 in 7.0 mi North 3.5 mph - N/A   Overcast
6:35 AM 32.0 °F - 30.7 °F 95% 29.96 in 10.0 mi Calm Calm - N/A   Light Drizzle
7:35 AM 32.0 °F - 30.7 °F 95% 29.95 in 7.0 mi Calm Calm - N/A   Overcast
7:55 AM 32.0 °F 27.5 °F 31.1 °F 96% 30.00 in 3.0 mi WSW 4.6 mph - N/A   Overcast
8:15 AM 32.0 °F - 31.1 °F 96% 29.97 in 4.0 mi Calm Calm - N/A   Overcast
8:35 AM 32.0 °F - 31.1 °F 96% 29.97 in 1.2 mi Calm Calm - N/A   Light Drizzle
8:55 AM 32.0 °F - 31.1 °F 96% 29.96 in 2.0 mi North - - N/A   Overcast
9:15 AM 32.0 °F 26.4 °F 31.1 °F 96% 29.99 in 1.5 mi WSW 5.8 mph - N/A   Overcast
9:35 AM 32.0 °F - 31.1 °F 96% 29.97 in 1.2 mi Calm Calm - N/A   Overcast
9:55 AM 32.0 °F 28.7 °F 31.1 °F 96% 29.99 in 1.0 mi WSW 3.5 mph - N/A   Overcast
10:15 AM 32.0 °F 27.5 °F 31.5 °F 98% 30.00 in 1.0 mi West 4.6 mph - N/A   Overcast
10:35 AM 32.0 °F 27.5 °F 31.8 °F 99% 29.99 in 1.2 mi WSW 4.6 mph - N/A   Light Drizzle
10:55 AM 32.2 °F 26.7 °F 31.8 °F 99% 30.01 in 1.5 mi West 5.8 mph - N/A   Overcast
11:15 AM 32.2 °F 25.8 °F 32.0 °F 99% 30.00 in 1.5 mi West 6.9 mph - N/A   Overcast
11:35 AM 32.2 °F 24.4 °F 31.6 °F 98% 30.00 in 2.0 mi West 9.2 mph - N/A   Overcast
11:55 AM 32.2 °F 25.8 °F 31.5 °F 97% 29.99 in 1.8 mi WSW 6.9 mph - N/A   Overcast
12:15 PM 32.2 °F 25.8 °F 31.5 °F 97% 29.99 in 4.0 mi West 6.9 mph - N/A   Overcast
12:35 PM 32.4 °F 26.9 °F 31.5 °F 96% 29.98 in 7.0 mi SW 5.8 mph - N/A   Overcast
12:55 PM 32.5 °F - 31.5 °F 96% 29.97 in 7.0 mi Calm Calm - N/A   Overcast
1:15 PM 32.4 °F 26.9 °F 31.3 °F 96% 29.97 in 7.0 mi SW 5.8 mph - N/A   Overcast
1:35 PM 32.5 °F 26.2 °F 31.3 °F 95% 29.97 in 5.0 mi SW 6.9 mph - N/A   Overcast
1:55 PM 32.7 °F 28.3 °F 31.6 °F 96% 29.98 in 5.0 mi SSW 4.6 mph - N/A   Overcast
2:15 PM 32.9 °F 28.5 °F 31.6 °F 95% 29.99 in 5.0 mi SW 4.6 mph - N/A   Overcast
2:35 PM 32.9 °F 28.5 °F 31.6 °F 95% 29.99 in 7.0 mi SSW 4.6 mph - N/A   Overcast
3:15 PM 32.9 °F 27.5 °F 31.8 °F 96% 29.99 in 5.0 mi SSW 5.8 mph - N/A   Overcast
3:35 PM 32.9 °F 28.5 °F 31.8 °F 96% 30.00 in 7.0 mi SSW 4.6 mph - N/A   Overcast
3:55 PM 32.9 °F 25.9 °F 31.8 °F 96% 30.01 in 7.0 mi SSW 8.1 mph - N/A   Overcast
4:15 PM 33.1 °F 27.7 °F 31.8 °F 95% 30.01 in 7.0 mi SSW 5.8 mph - N/A   Overcast
4:35 PM 33.1 °F 28.7 °F 32.0 °F 96% 30.01 in 7.0 mi SW 4.6 mph - N/A   Overcast
4:55 PM 33.1 °F 28.7 °F 32.0 °F 96% 30.02 in 7.0 mi SSW 4.6 mph - N/A   Overcast
5:15 PM 33.1 °F 28.7 °F 32.0 °F 96% 30.03 in 7.0 mi SW 4.6 mph - N/A   Overcast
5:35 PM 32.9 °F 28.5 °F 32.0 °F 96% 30.04 in 7.0 mi SW 4.6 mph - N/A   Overcast
5:55 PM 33.1 °F 27.7 °F 31.8 °F 95% 30.04 in 10.0 mi SW 5.8 mph - N/A   Overcast
6:15 PM 32.9 °F 28.5 °F 31.8 °F 96% 30.05 in 10.0 mi SSW 4.6 mph - N/A   Mostly Cloudy
6:35 PM 32.9 °F 29.8 °F 31.6 °F 95% 30.05 in 10.0 mi SSW 3.5 mph - N/A   Mostly Cloudy
6:55 PM 32.9 °F 28.5 °F 31.6 °F 95% 30.05 in 10.0 mi SSW 4.6 mph - N/A   Mostly Cloudy
7:15 PM 32.9 °F 27.5 °F 31.6 °F 95% 30.04 in 10.0 mi SSW 5.8 mph - N/A   Mostly Cloudy
7:35 PM 32.9 °F 28.5 °F 31.6 °F 95% 30.04 in 7.0 mi SW 4.6 mph - N/A   Mostly Cloudy
7:55 PM 32.9 °F 29.8 °F 31.8 °F 96% 30.04 in 10.0 mi SW 3.5 mph - N/A   Overcast
8:15 PM 32.9 °F 27.5 °F 31.6 °F 95% 30.06 in 10.0 mi SSW 5.8 mph - N/A   Overcast
8:35 PM 32.9 °F 29.8 °F 31.6 °F 95% 30.05 in 10.0 mi SW 3.5 mph - N/A   Overcast
8:55 PM 32.9 °F 28.5 °F 31.6 °F 95% 30.06 in 10.0 mi SW 4.6 mph - N/A   Overcast
9:15 PM 32.9 °F 28.5 °F 31.6 °F 95% 30.08 in 10.0 mi SW 4.6 mph - N/A   Overcast
9:35 PM 32.9 °F 27.5 °F 31.6 °F 95% 30.06 in 10.0 mi SW 5.8 mph - N/A   Overcast
9:55 PM 32.9 °F 27.5 °F 31.6 °F 95% 30.07 in 7.0 mi SW 5.8 mph - N/A   Mostly Cloudy
10:15 PM 32.9 °F 27.5 °F 31.5 °F 94% 30.06 in 7.0 mi WSW 5.8 mph - N/A   Mostly Cloudy
10:35 PM 32.7 °F 27.3 °F 31.3 °F 94% 30.06 in 7.0 mi SW 5.8 mph - N/A   Scattered Clouds
10:55 PM 32.7 °F 28.3 °F 31.3 °F 94% 30.06 in 7.0 mi SW 4.6 mph - N/A   Scattered Clouds
11:15 PM 32.5 °F 29.3 °F 31.3 °F 95% 30.07 in 7.0 mi SW 3.5 mph - N/A   Scattered Clouds
11:35 PM 32.5 °F 28.1 °F 31.1 °F 94% 30.06 in 7.0 mi WSW 4.6 mph - N/A   Clear
11:55 PM 32.4 °F - 31.1 °F 95% 30.06 in 7.0 mi Calm Calm - N/A   Clear